Flag for Germany Weather past 2 weeks in Heide, Schleswig-Holstein, Germany

Now
30 °F

Chilly.


Feels Like: 23 °F
Forecast: 26 / 33 °F
Wind: 8 mph from West

Location: Hohn

Current Time: Feb 2, 2015 at 3:40:16 AM

Latest Report: Feb 2, 2015 at 2:20 AM


Visibility: 3 mi

Pressure: 29.27 "Hg

Humidity: 86%

Dew point: 27 °F

Location of HeideLocation

Historic Weather in Heide — Graph

°F

Heide temperature yesterday

Maximum temperature yesterday: 36 °F (at 1:20 PM)
Minimum temperature yesterday: 21 °F (at 3:20 AM)
Average temperature yesterday: 28 °F

Past Weeks' High & Low Weather Summary

 TemperatureHumidityPressure
High43 °F (Jan 27, 1:20 PM)100% (Jan 18, 8:20 PM)30.30 "Hg (Jan 18, 8:20 PM)
Low18 °F (Jan 22, 11:20 PM)71% (Jan 27, 3:20 PM)28.71 "Hg (Jan 30, 3:20 AM)
Average31 °F95%29.69 "Hg
* Reported Jan 18 2:20 AM — Feb 2 2:20 AM, Heide, Weather by CustomWeather, © 2014

Note: Actual official high and low records may vary slightly from our data, if they occured in-between our weather recording intervals... More about our weather records

Advertising

Heide weather history for previous 24 hours

 ConditionsComfort  
Time TempWeatherWind HumidityBarometerVisibility
2:20 AM
Feb 2
30 °FChilly.8 mph86%29.27 "Hg3 mi
1:20 AM30 °FChilly.8 mph86%29.24 "Hg3 mi
12:20 AM32 °FChilly.9 mph80%29.24 "Hg4 mi
11:20 PM
Feb 1
32 °FChilly.9 mph87%29.21 "Hg4 mi
10:20 PM30 °FChilly.8 mph86%29.21 "Hg3 mi
9:20 PM32 °FChilly.8 mph87%29.21 "Hg3 mi
8:20 PM32 °FChilly.8 mph93%29.21 "Hg3 mi
7:20 PM32 °FChilly.8 mph100%29.18 "Hg3 mi
6:20 PM34 °FChilly.8 mph93%29.18 "Hg3 mi
5:20 PM34 °FChilly.10 mph100%29.15 "Hg3 mi
4:20 PM36 °FChilly.10 mph100%29.15 "Hg3 mi
3:20 PM36 °FChilly.13 mph100%29.12 "Hg2 mi
2:20 PM34 °FChilly.9 mph100%29.15 "Hg2 mi
1:20 PM36 °FChilly.10 mph100%29.12 "Hg3 mi
12:20 PM34 °FChilly.7 mph100%29.15 "Hg2 mi
11:20 AM32 °FChilly.5 mph93%29.12 "Hg1 mi
10:20 AM28 °FChilly.1 mph100%29.12 "Hg0 mi
9:20 AM23 °FCold.No wind93%29.12 "Hg1 mi
8:20 AM21 °FCold.1 mph100%29.12 "Hg0 mi
7:20 AM23 °FCold.1 mph93%29.09 "Hg0 mi
6:20 AM21 °FCold.2 mph93%29.09 "Hg0 mi
5:20 AM21 °FIce fog.1 mph93%29.09 "Hg0 mi
4:20 AM21 °FIce fog.No wind93%29.06 "Hg0 mi
3:20 AM21 °FIce fog.2 mph93%29.06 "Hg0 mi
Weather by CustomWeather, © 2014

See weather overviewHow to use our weather pages